AirNav   BOSE A20 Aviation Headset
 
 1640 users online  

KRIV March Air Reserve Base
Riverside, California, USA

GOING TO RIVERSIDE?


FAA INFORMATION EFFECTIVE 26 APRIL 2018

Location

FAA Identifier: RIV
Lat/Long: 33-52-54.9960N / 117-15-32.4610W
33-52.916600N / 117-15.541017W
33.8819433 / -117.2590169
(estimated)
Elevation: 1536 ft. / 468 m (estimated)
Variation: 14E (1980)
From city: 6 miles SE of RIVERSIDE, CA
Time zone: UTC -7 (UTC -8 during Standard Time)
Zip code: 92518

Airport Operations

Airport use: Open to the public
Activation date: 05/1941
Control tower: yes
ARTCC: LOS ANGELES CENTER
FSS: RIVERSIDE FLIGHT SERVICE STATION
NOTAMs facility: RIV (NOTAM-D service available)
Attendance: 0700-2300
OPR 1500-0700Z++ DLY, CLSD HOL; OPS 0700-1500Z++ DLY AND ON HOL RSTD TO KRIV BASED ALERT MSN.
Pattern altitude: TFC PAT - RECTANGULAR 3000', OVERHEAD 3500'.
Segmented circle: no
Beacon: white-green (lighted land airport)
Operates sunset to sunrise.
International operations: international airport of entry

Airport Communications

ATIS: 134.75 239.05
MARCH GROUND: 121.75 335.8
MARCH TOWER: 127.65 253.5
MARCH APPROACH: 133.5 306.975 134.0 [OPR 1500-0700Z++ DAILY, CLSD HOL, OT CTC SOCAL APP/DEP]
SOCAL APPROACH: 119.25 270.275 [0700-1500Z++]
MARCH DEPARTURE: 133.5 306.975 134.0 [OPR 1500-0700Z++ DAILY, CLSD HOL, OT CTC SOCAL APP/DEP]
SOCAL DEPARTURE: 119.25 270.275 [0700-1500Z++]
- CD: 121.75 335.8
AFR OPNS: 252.1
CLASS C: 119.25 133.5 270.275 306.975
COMD POST: 138.45
COMMAND POST: 311.0 349.0
EMERG: 121.5 243.0
PMSV METRO: 239.8
PTD: 372.2
RADAR: 133.5
RDR: 134.1X 271.3X
WX ASOS at RAL (10 nm NW): PHONE 951-352-4392
WX AWOS-3 at SBD (13 nm N): 124.175 (909-382-0067)
WX AWOS-3 at HMT (15 nm SE): 118.375 (951-925-6886)
WX AWOS-3PT at AJO (17 nm W): 132.175 (951-340-4764)
WX AWOS-3 at F70 (20 nm S): 119.025 (951-696-1018)
WX ASOS at CNO (20 nm W): PHONE 909-393-5823
WX ASOS at ONT (20 nm NW): PHONE 909-937-2186
  • PTD RCPT EXTREMELY LTD DUE TO HI SUR TERRAIN.
  • AUGMENTED AWOS IN USE. WX STATION H24, DSN 447-3602, C951-655-3602. FOR ADDN INFO OR DUR EVAC OF WX, CTC THE 25TH OWS AT DAVIS MONTHAN AFB, AZ DSN 228-6698, C520-228-6698.

Nearby radio navigation aids

VOR radial/distance  VOR name  Freq  Var
HDFr316/(7.3)HOMELAND VOR113.4014E
RALr101/(10.5)RIVERSIDE VOR112.4014E
PDZr084/13.7PARADISE VORTAC112.2015E
ELBr048/26.6EL TORO VOR/DME117.2014E
POMr099/28.8POMONA VORTAC110.4015E
OCNr357/39.3OCEANSIDE VORTAC115.3015E

 
NDB name  Hdg/Dist  Freq  Var  ID
PETIS139/11.739714ESB ... -...

Airport Services

Fuel available: 100LL JET-A JET-A++
FULL SVC AVBL AT FBO; SELF-SERVE UNAVBL.
Airframe service: MAJOR
Powerplant service: MAJOR
Bottled oxygen: HIGH/LOW
Bulk oxygen: HIGH/LOW

Runway Information

Runway 14/32

Dimensions: 13302 x 200 ft. / 4054 x 61 m
Surface: concrete, in good condition
Weight bearing capacity: 
PCN 44 /R/B/W/T
Runway edge lights: high intensity
RUNWAY 14  RUNWAY 32
Latitude: 33-53.785833N33-51.899667N
Longitude: 117-16.238167W117-14.896833W
Elevation: 1535.5 ft.1488.3 ft.
Gradient: 0.4%0.4%
Traffic pattern: leftleft
Runway heading: 135 magnetic, 149 true315 magnetic, 329 true
Markings: basic, in good conditionprecision, in good condition
Visual slope indicator: 4-light PAPI on left (2.59 degrees glide path)4-light PAPI on left (3.00 degrees glide path)
RVR equipment: touchdown, midfield, rollouttouchdown, midfield, rollout
Approach lights: ALSF1: standard 2,400 foot high intensity approach lighting system with centerline sequenced flashers (category I)
Runway end identifier lights: nono
Touchdown point: yes, no lightsyes, no lights
Instrument approach: ILS

Runway 12/30

Dimensions: 3061 x 100 ft. / 933 x 30 m
Surface: asphalt
Weight bearing capacity: 
PCN 20 /F/A/W/T
Operational restrictions: RY 12/30 CLSD TO PUBLIC-USE ONLY.
RUNWAY 12  RUNWAY 30
Latitude: 33-53.415500N33-53.059167N
Longitude: 117-15.640833W117-15.212167W
Elevation: 1519.1 ft.1507.1 ft.
Traffic pattern: leftleft
Runway heading: 121 magnetic, 135 true301 magnetic, 315 true
Touchdown point: yes, no lightsyes, no lights

Airport Ownership and Management from official FAA records

Ownership: U.S. Air Force
Owner: UNITED STATES AIR FORCE
2645 GRAEBER ST., BLDG. 1220
MARCH ARB, CA 92518
Phone 951-203-2422
Manager: GARY W. GOSLIGA
2645 GRAEBER ST., BLDG. 1220
MARCH ARB, CA 92518
Phone 951-203-7797

Airport Operational Statistics

Aircraft based on the field: 6
Single engine airplanes: 4
Multi engine airplanes: 2
    

Additional Remarks

E60-32 TYPE-H BAK-12B(B) (1500')
E60-14 TYPE-H BAK-12B(B) (1500')
CAUTION: NSTD RWY MRK-LANDING ZONE (LZ) MARK (3500X90 PAINTED ON RWY 32 FOR BASE ASGN C17 ACFT ONLY).
TSNT ACFT NO PRACTICE APCH 2100-0700.
GEN AVN OPS PMTD DUR FBO BUS HRS. FBO BUS HRS 1400-0600Z++ MON-FRI, OPEN SAT-SUN (IF REQ PRIOR TO CLOSE OF BUS FRI) AND WILL HONOR MEDICAL REQ MADE AT ANY TIME, CALL 951-247-2111.
USE EXTREME CAUTION FOR EXTV UAS OPS IN VCNTY.
NONSTANDARD TACAN CHECKPOINT SIGNS LCTD AT RWY A AND TWY F.
MIL RMK: 24 HR PN/PPR FOR ALL TRAN ACFT, CTC AFLD MGMT OPS DSN 447-4404/2422, C951-655-4404/2422.
MIL RMK: ALL INBD PAX/CARGO ACFT MUST CTC COMD POST DSN 447-4665 24 HR PRIOR TO ARR WITH TYPE CARGO AND NR OF PAX.
CSTMS/AG/IMG - CTC AFLD MGMT OPS DSN 447-4404/2422, C951-655-4404/2422 AT LEAST 24 HR PN TO ARR RQR. LTD SVC, NO RESIDENT CSTMS AGENT, BUT ON CALL H24, DRIVING FR ONTARIO INTL. NO-NTC ACFT THAT RQR CSTMS EXP MIN 2 HR DELAY. CSTMS RQR FOLLOWING FORMS FOR ARR ACFT - CBP FORM 7507 GENERAL DECLARATION, CBP FORM 6059B CUSTOMS DECLARATION FR ALL PERS ONBOARD LCTD HTTPS://WWW.CBP.GOV/NEWSROOM/PUBLICATIONS/FORMS, PAX/CARGO MANIFEST AS APPLICABLE. AIRCREW, PAX, CARGO RQR TO REMAIN IN ACFT TIL RELEASED BY CSTMS. APV LDG RIGHTS AND OVFT EXM REQ. NOT A PORT OF ENTRY, IMG SVC EXTREMELY LTD, CASE-BY-CASE BASIS. CTC PTD 2 HR PRIOR TO LDG VIA DRCT A/G COM OR FONE PATCH.
CAUTION: EXTV GLIDER, SKYDIVING, BALLOONIST AND ULTRALIGHT ACT AT PERRIS ARPT, 7 NM S OF MARCH.
CAUTION: HEAVY MILITARY FLIGHT TRAINING.
JOINT USE AIRPORT - OWNED AND OPERATED BY US AIR FORCE/ NO CIVIL TOUCH AND GO OPS OR MANEUVERS.
AIRFIELD USE AGREEMENT WITH CIVIL ARPT AUTH (MARCH INLAND PORT ARPT AUTH) MILITARY, CIVIL COMMERCIAL AND GENERAL AVIATION(GA) USES.
GA OPS - PPR AND/OR LANDING PERMIT NOT REQ FOR USE OF CIVIL APRON AND RAMPS/FBO INF. -FREEMAN HOLDINGS 951-247-2111 / FREQS 130.075.
RY 12/30 CLSD TO PUBLIC DUE TO MUNITIONS AND EXPLOSIVES OPS IN CLOSE PROXIMITY OF RY 12/30 PER UFC & DOD REGULATIONS.
TRANSPORTATION LIMITED, PRIOR COORDINATION REQUIRED, CTC DSN 447-7787 WKND.

Instrument Procedures

NOTE: All procedures below are presented as PDF files. If you need a reader for these files, you should download the free Adobe Reader.

NOT FOR NAVIGATION. Please procure official charts for flight.
FAA instrument procedures published for use from 26 April 2018 at 901Z to 24 May 2018 at 0900Z.

 
STARs - Standard Terminal Arrivals
ARKOE ONE   download (164KB)
HITOP ONE   download (129KB)
MARCH FOUR   download (141KB)
 
IAPs - Instrument Approach Procedures
HI-ILS OR LOC Z RWY 32   download (224KB)
ILS OR LOC X RWY 32   download (146KB)
ILS OR LOC Y RWY 32   download (151KB)
RNAV (GPS) RWY 14   download (128KB)
RNAV (GPS) RWY 32   download (119KB)
RNAV (GPS)-A   download (127KB)
HI-VOR Z RWY 32   download (216KB)
VOR Y RWY 32   download (133KB)
HI-TACAN Z RWY 14   download (113KB)
HI-TACAN Z RWY 32   download (137KB)
TACAN Y RWY 14   download (119KB)
TACAN Y RWY 32   download (129KB)
 
Departure Procedures
SKYES THREE   download (143KB)
NOTE: Special Take-Off Minimums/Departure Procedures apply   download (209KB)

Other nearby airports with instrument procedures:

KRIR - Flabob Airport (10 nm NW)
KRAL - Riverside Municipal Airport (10 nm NW)
KSBD - San Bernardino International Airport (13 nm N)
KREI - Redlands Municipal Airport (13 nm NE)
KHMT - Hemet-Ryan Airport (15 nm SE)
KAJO - Corona Municipal Airport (17 nm W)
F70 - French Valley Airport (20 nm S)
KCNO - Chino Airport (20 nm W)
KONT - Ontario International Airport (20 nm NW)
 
Loc | Ops | Rwys | IFR | FBO | Links
Com | Nav | Svcs | Stats | Notes

San Bernardino International Airport Authority
 
Area around KRIV (March Air Reserve Base)
 
Road maps at: MapQuest Bing Google
 
Aerial photo
WARNING: Photo may not be current or correct
Aerial photo of KRIV (March Air Reserve Base)
Photo by Mark Holtzman
Photo taken 11-Jul-2017
looking south.

Do you have a better or more recent aerial photo of March Air Reserve Base that you would like to share? If so, please send us your photo.

 
Sectional chart

 
Airport diagram
Diagram of KRIV (March Air Reserve Base)
Download PDF
of official airport diagram from the FAA

 
Airport distance calculator
Flying to March Air Reserve Base? Find the distance to fly.

From to KRIV

Sunrise and sunset
Times for 22-May-2018
 Local
(UTC-7)
 Zulu
(UTC)
Morning civil twilight05:1612:16
Sunrise05:4412:44
Sunset19:4702:47
Evening civil twilight20:1503:15

Current date and time
Zulu (UTC)  22-May-2018 15:18:41
Local (UTC-7)  22-May-2018 08:18:41
 
METAR
KRIV 221458Z AUTO 16005KT 10SM OVC012 12/11 A2993 RMK AO2 CIG 011 RWY14 SLP132 T01240110 52015
KRAL 
10nm NW 
221453Z 00000KT 10SM OVC025 14/10 A2993 RMK AO2 SLP123 T01440100 53015 $
KSBD 
13nm N 
221445Z 26003KT 4SM HZ OVC015 14/10 A2993
KREI 
13nm NE 
SuperAWOS
221455Z AUTO 00000KT 4SM HZ 12/09 A2993
KAJO 
17nm W 
221456Z AUTO 00000KT 10SM 15/10 A2993 RMK AO2 SLP147 6//// T01500100 53016 $
KCNO 
19nm W 
221453Z 24006KT 10SM SCT019 OVC042 16/10 A2994 RMK AO2 SLP135 T01610100 53016
KONT 
19nm NW 
221453Z 28007KT 9SM FEW008 BKN016 OVC021 14/09 A2993 RMK AO2 SLP129 T01440094 53011
KF70 
20nm S 
221455Z AUTO 20005KT 10SM SCT018 OVC026 13/09 A2994 RMK AO1
TAF
KRIV 221201Z 2212/2318 16006KT 9999 BKN010 QNH2985INS TEMPO 2212/2216 6000 -DZ BR BKN008 BECMG 2217/2218 VRB06KT 9999 BKN015 QNH2989INS BECMG 2220/2221 30010G15KT 9999 SCT025 SCT100 QNH2985INS BECMG 2302/2303 30009KT 9999 SCT005 BKN015 QNH2990INS BECMG 2308/2309 VRB06KT 4800 BR BKN008 QNH2988INS BECMG 2314/2315 VRB06KT 9999 NSW BKN015 QNH2985INS TX22/2222Z TN12/2213Z
KSBD 
13nm N 
221430Z 2215/2312 VRB04KT 4SM BR BKN016 FM221800 26005KT 5SM HZ SCT030 SCT040 FM222100 25010KT P6SM SCT040 FM230400 26005KT P6SM SCT015 SCT025 FM231000 VRB05KT P6SM OVC012
KONT 
19nm NW 
221349Z 2214/2318 27007KT P6SM OVC020 TEMPO 2214/2215 BKN014 FM221500 VRB04KT P6SM SCT020 BKN035 FM221900 25012KT P6SM SCT035 FM230400 25007KT P6SM SCT015 SCT025 FM230900 VRB05KT P6SM OVC012 FM231700 VRB04KT P6SM SCT018
NOTAMs
Click for the latest NOTAMs
NOTAMs are issued by the DoD/FAA and will open in a separate window not controlled by AirNav.

 

 
 

FBO, Fuel Providers, and Aircraft Ground Support

  
 Business Name 
 
 Contact 
 
 Services / Description 
 
Fuel Prices
 
Comments
  
Million Air 951-247-2111
[web site]
[email]
Aviation fuel, Aircraft ground handling, Aircraft parking (ramp or tiedown), GPU / Power cart, Passenger terminal and lounge, Catering, Rental cars, ...
 
NATA Safety 1st   World Fuel | Colt Contract Fuel   Alliance Card   FlyBuys™ Rewards Program   Contract Fuel   Crew cars   Hertz  
 
More info about Million Air
Ascent
100LL Jet A
FS $5.83 $5.28 
GUARANTEED
 
   3 read write
FS=Full service
Update Fuel Prices
 

Would you like to see your business listed on this page?

 If your business provides an interesting product or service to pilots, flight crews, aircraft, or users of the March Air Reserve Base, you should consider listing it here.  To start the listing process, click on the button below
 
Add a business
 

Other Pages about March Air Reserve Base

www.marchjpa.com/airport.html
 
Update a link
 
Copyright © AirNav, LLC. All rights reserved. Privacy Policy  Contact